• In Uzbekistan
  • List of Countries
  • For 7 days
  • Water Temperature
  • Satellite Maps
  • Weather Map
  • Weather Widgets
  • user-avatar
    Login

    Hourly Weather Akhaltsikhe

    Today, 23 October, Tuesday

    Time Temperature Precipitation Wind Pressure Humidity
    00:00 +9°C° 0 mm 1 mps 651 mmHg 92%
    01:00 +9°C° 0 mm 1 mps 651 mmHg 91%
    02:00 +8°C° 0 mm 1 mps 651 mmHg 90%
    03:00 +9°C° 0 mm 1 mps 650 mmHg 89%
    04:00 +9°C° 0 mm 1 mps 650 mmHg 89%
    05:00 +8°C° 0 mm 1 mps 650 mmHg 88%
    06:00 +8°C° 0 mm 1 mps 650 mmHg 87%
    07:00 +10°C° 0 mm 1 mps 651 mmHg 81%
    08:00 +11°C° 0 mm 1 mps 651 mmHg 75%
    09:00 +13°C° 0 mm 1 mps 652 mmHg 69%
    10:00 +14°C° 0 mm 1 mps 652 mmHg 64%
    11:00 +15°C° 0 mm 1 mps 652 mmHg 58%
    12:00 +16°C° 0 mm 2 mps 652 mmHg 53%
    13:00 +16°C° 0.1 mm 2 mps 651 mmHg 53%
    14:00 +16°C° 0.1 mm 2 mps 651 mmHg 53%
    15:00 +16°C° 0.1 mm 2 mps 651 mmHg 54%
    16:00 +14°C° 0.1 mm 1 mps 650 mmHg 62%
    17:00 +13°C° 0.1 mm 1 mps 650 mmHg 70%
    18:00 +11°C° 0.1 mm 1 mps 649 mmHg 79%
    19:00 +11°C° 0 mm 1 mps 649 mmHg 79%
    20:00 +10°C° 0 mm 1 mps 649 mmHg 79%
    21:00 +10°C° 0 mm 1 mps 649 mmHg 79%
    22:00 +10°C° 0 mm 1 mps 649 mmHg 78%
    23:00 +10°C° 0 mm 1 mps 649 mmHg 78%

    Tomorrow, 24 October, Wednesday

    Time Temperature Precipitation Wind Pressure Humidity
    00:00 +9°C° 0 mm 2 mps 648 mmHg 77%
    01:00 +8°C° 0 mm 2 mps 648 mmHg 77%
    02:00 +8°C° 0 mm 2 mps 648 mmHg 77%
    03:00 +8°C° 0 mm 2 mps 648 mmHg 77%
    04:00 +8°C° 0 mm 2 mps 647 mmHg 77%
    05:00 +8°C° 0 mm 2 mps 647 mmHg 78%
    06:00 +8°C° 0 mm 2 mps 646 mmHg 79%
    07:00 +9°C° 0 mm 2 mps 647 mmHg 74%
    08:00 +12°C° 0 mm 2 mps 647 mmHg 69%
    09:00 +13°C° 0 mm 3 mps 647 mmHg 65%
    10:00 +14°C° 0.1 mm 3 mps 647 mmHg 61%
    11:00 +16°C° 0.1 mm 3 mps 647 mmHg 57%
    12:00 +17°C° 0.1 mm 3 mps 647 mmHg 53%
    13:00 +17°C° 0.4 mm 3 mps 646 mmHg 56%
    14:00 +16°C° 0.4 mm 3 mps 645 mmHg 59%
    15:00 +16°C° 0.4 mm 3 mps 644 mmHg 62%
    16:00 +15°C° 0.4 mm 2 mps 644 mmHg 67%
    17:00 +14°C° 0.4 mm 2 mps 644 mmHg 73%
    18:00 +13°C° 0.4 mm 2 mps 643 mmHg 78%
    19:00 +12°C° 0.3 mm 2 mps 643 mmHg 79%
    20:00 +12°C° 0.3 mm 2 mps 643 mmHg 80%
    21:00 +11°C° 0.3 mm 3 mps 643 mmHg 80%
    22:00 +11°C° 0.2 mm 3 mps 642 mmHg 81%
    23:00 +10°C° 0.2 mm 3 mps 642 mmHg 82%

    Day after tomorrow, 25 October, Thursday

    Time Temperature Precipitation Wind Pressure Humidity
    00:00 +10°C° 0.2 mm 3 mps 642 mmHg 83%
    01:00 +10°C° 0.1 mm 3 mps 641 mmHg 83%
    02:00 +10°C° 0.1 mm 3 mps 641 mmHg 84%
    03:00 +10°C° 0.1 mm 3 mps 641 mmHg 84%
    04:00 +10°C° 0.6 mm 3 mps 640 mmHg 84%
    05:00 +10°C° 0.6 mm 3 mps 640 mmHg 84%
    06:00 +10°C° 0.6 mm 3 mps 640 mmHg 85%
    07:00 +11°C° 0.5 mm 3 mps 640 mmHg 82%
    08:00 +11°C° 0.5 mm 4 mps 640 mmHg 80%
    09:00 +12°C° 0.5 mm 4 mps 640 mmHg 77%
    10:00 +12°C° 0.7 mm 5 mps 639 mmHg 74%
    11:00 +13°C° 0.7 mm 6 mps 639 mmHg 71%
    12:00 +14°C° 0.7 mm 7 mps 639 mmHg 69%
    13:00 +11°C° 2.9 mm 6 mps 638 mmHg 76%
    14:00 +10°C° 2.9 mm 5 mps 638 mmHg 83%
    15:00 +8°C° 2.9 mm 4 mps 638 mmHg 90%
    16:00 +7°C° 1.7 mm 4 mps 639 mmHg 91%
    17:00 +7°C° 1.7 mm 3 mps 639 mmHg 92%
    18:00 +7°C° 1.7 mm 2 mps 640 mmHg 94%
    19:00 +6°C° 1.4 mm 2 mps 640 mmHg 94%
    20:00 +6°C° 1.4 mm 2 mps 640 mmHg 95%
    21:00 +4°C° 1.4 mm 3 mps 641 mmHg 95%
    22:00 +4°C° 1.3 mm 3 mps 641 mmHg 95%
    23:00 +4°C° 1.3 mm 3 mps 641 mmHg 95%

    26 October, Friday

    Time Temperature Precipitation Wind Pressure Humidity
    00:00 +3°C° 1.3 mm 3 mps 642 mmHg 94%
    01:00 +4°C° 1.5 mm 2 mps 642 mmHg 95%
    02:00 +3°C° 1.5 mm 2 mps 642 mmHg 95%
    03:00 +3°C° 1.5 mm 2 mps 642 mmHg 95%
    04:00 +3°C° 0.8 mm 2 mps 643 mmHg 95%
    05:00 +3°C° 0.8 mm 2 mps 643 mmHg 95%
    06:00 +4°C° 0.8 mm 1 mps 643 mmHg 95%
    07:00 +4°C° 0.6 mm 1 mps 644 mmHg 94%
    08:00 +4°C° 0.6 mm 1 mps 644 mmHg 92%
    09:00 +4°C° 0.6 mm 1 mps 645 mmHg 90%
    10:00 +4°C° 0.7 mm 2 mps 645 mmHg 90%
    11:00 +4°C° 0.7 mm 2 mps 645 mmHg 89%
    12:00 +4°C° 0.7 mm 2 mps 645 mmHg 89%
    13:00 +4°C° 0.7 mm 2 mps 645 mmHg 89%
    14:00 +4°C° 0.7 mm 2 mps 646 mmHg 89%
    15:00 +4°C° 0.7 mm 2 mps 646 mmHg 89%
    16:00 +3°C° 0.4 mm 2 mps 646 mmHg 91%
    17:00 +4°C° 0.4 mm 1 mps 647 mmHg 92%
    18:00 +3°C° 0.4 mm 1 mps 647 mmHg 93%
    19:00 +3°C° 0.2 mm 1 mps 648 mmHg 92%
    20:00 +2°C° 0.2 mm 2 mps 648 mmHg 91%
    21:00 +2°C° 0.2 mm 2 mps 649 mmHg 91%
    22:00 +1°C° 0.1 mm 2 mps 649 mmHg 90%
    23:00 +1°C° 0.1 mm 2 mps 650 mmHg 89%

    27 October, Saturday

    Time Temperature Precipitation Wind Pressure Humidity
    00:00 +1°C° 0.1 mm 2 mps 650 mmHg 88%
    01:00 +1°C° 0.3 mm 2 mps 651 mmHg 88%
    02:00 +1°C° 0.3 mm 2 mps 651 mmHg 89%
    03:00 +1°C° 0.3 mm 2 mps 652 mmHg 89%
    04:00 +1°C° 0.1 mm 2 mps 652 mmHg 89%
    05:00 +1°C° 0.1 mm 2 mps 652 mmHg 89%
    06:00 +1°C° 0.1 mm 2 mps 653 mmHg 88%
    07:00 +2°C° 0 mm 2 mps 653 mmHg 87%
    08:00 +3°C° 0 mm 2 mps 654 mmHg 85%
    09:00 +5°C° 0 mm 1 mps 654 mmHg 84%
    10:00 +6°C° 0 mm 1 mps 654 mmHg 82%
    11:00 +7°C° 0 mm 1 mps 654 mmHg 80%
    12:00 +8°C° 0 mm 1 mps 654 mmHg 79%
    13:00 +9°C° 0 mm 1 mps 654 mmHg 78%
    14:00 +9°C° 0 mm 1 mps 654 mmHg 77%
    15:00 +9°C° 0 mm 1 mps 654 mmHg 77%
    16:00 +7°C° 0 mm 1 mps 654 mmHg 80%
    17:00 +6°C° 0 mm 1 mps 654 mmHg 83%
    18:00 +4°C° 0 mm 1 mps 654 mmHg 86%
    19:00 +3°C° 0 mm 2 mps 654 mmHg 83%
    20:00 +3°C° 0 mm 2 mps 654 mmHg 81%
    21:00 +2°C° 0 mm 2 mps 654 mmHg 78%
    22:00 +2°C° 0 mm 2 mps 654 mmHg 77%
    23:00 +2°C° 0 mm 2 mps 654 mmHg 75%

    28 October, Sunday

    Time Temperature Precipitation Wind Pressure Humidity
    00:00 +2°C° 0 mm 2 mps 654 mmHg 73%
    01:00 +2°C° 0 mm 2 mps 654 mmHg 73%
    02:00 +2°C° 0 mm 2 mps 654 mmHg 72%
    03:00 +2°C° 0 mm 2 mps 654 mmHg 71%
    04:00 +2°C° 0 mm 2 mps 654 mmHg 70%
    05:00 +2°C° 0 mm 2 mps 654 mmHg 69%
    06:00 +2°C° 0 mm 2 mps 654 mmHg 69%
    07:00 +3°C° 0 mm 2 mps 655 mmHg 67%
    08:00 +5°C° 0 mm 2 mps 655 mmHg 65%
    09:00 +7°C° 0 mm 2 mps 655 mmHg 63%
    10:00 +9°C° 0 mm 2 mps 656 mmHg 62%
    11:00 +10°C° 0 mm 2 mps 656 mmHg 61%
    12:00 +13°C° 0 mm 2 mps 656 mmHg 59%
    13:00 +13°C° 0 mm 2 mps 656 mmHg 59%
    14:00 +13°C° 0 mm 2 mps 656 mmHg 59%
    15:00 +13°C° 0 mm 1 mps 655 mmHg 59%
    16:00 +10°C° 0 mm 2 mps 655 mmHg 61%
    17:00 +8°C° 0 mm 2 mps 654 mmHg 63%
    18:00 +6°C° 0 mm 2 mps 654 mmHg 65%
    19:00 +5°C° 0 mm 2 mps 654 mmHg 63%
    20:00 +5°C° 0 mm 2 mps 654 mmHg 60%
    21:00 +5°C° 0 mm 2 mps 654 mmHg 58%
    22:00 +4°C° 0 mm 2 mps 654 mmHg 57%
    23:00 +4°C° 0 mm 2 mps 654 mmHg 56%

    29 October, Monday

    Time Temperature Precipitation Wind Pressure Humidity
    00:00 +3°C° 0 mm 3 mps 654 mmHg 55%
    01:00 +3°C° 0 mm 3 mps 654 mmHg 55%
    02:00 +3°C° 0 mm 3 mps 653 mmHg 55%
    03:00 +3°C° 0 mm 3 mps 653 mmHg 55%
    04:00 +3°C° 0 mm 3 mps 653 mmHg 54%
    05:00 +3°C° 0 mm 3 mps 653 mmHg 53%
    06:00 +3°C° 0 mm 3 mps 653 mmHg 53%
    07:00 +5°C° 0 mm 3 mps 653 mmHg 52%
    08:00 +8°C° 0 mm 3 mps 654 mmHg 51%
    09:00 +9°C° 0 mm 3 mps 654 mmHg 50%
    10:00 +11°C° 0 mm 3 mps 654 mmHg 49%
    11:00 +13°C° 0 mm 3 mps 655 mmHg 48%
    12:00 +16°C° 0 mm 3 mps 655 mmHg 46%
    13:00 +14°C° 0 mm 3 mps 654 mmHg 47%
    14:00 +14°C° 0 mm 3 mps 654 mmHg 47%
    15:00 +14°C° 0 mm 3 mps 654 mmHg 47%
    16:00 +12°C° 0 mm 3 mps 653 mmHg 49%
    17:00 +10°C° 0 mm 3 mps 653 mmHg 52%
    18:00 +7°C° 0 mm 3 mps 652 mmHg 54%
    19:00 +7°C° 0 mm 3 mps 652 mmHg 53%
    20:00 +5°C° 0 mm 3 mps 652 mmHg 52%
    21:00 +5°C° 0 mm 3 mps 652 mmHg 50%
    22:00 +5°C° 0 mm 3 mps 652 mmHg 50%
    23:00 +5°C° 0 mm 3 mps 652 mmHg 50%
    Show more